Location: Miles
(41.4492°N, 81.6087°W)
Time: 12:09:15
(UTC+00:00)

Courier 1B - Pass Details

Date: 16 September 2024
Orbit: 962 x 1208 km, 28.3° (Epoch: 10 October)

Event Time Altitude Azimuth Distance (km) Brightness Sun altitude
Rises 19:25:18 0° 233° (SW) 3,838 11.4 41.8°
Reaches altitude 10° 19:28:27 10° 221° (SW) 2,926 11.2 41.4°
Maximum altitude 19:34:11 26° 168° (SSE) 2,061 9.9 40.7°
Drops below altitude 10° 19:40:11 10° 116° (ESE) 3,068 10.0 39.8°
Sets 19:43:34 0° 104° (ESE) 4,062 10.5 39.4°
